Miscellaneous Local Product
Issued by NWS North Platte, NE

Home | Current Version | Previous Version | Graphics & Text | Print | Product List | Glossary On
Versions: 1 2 3 4 5 6 7 8 9 10 11 12 13 14 15 16 17 18 19 20 21 22 23 24 25 26 27 28 29 30 31 32 33 34 35 36 37 38 39 40 41 42 43 44 45 46 47 48 49 50
000
AXUS43 KLBF 241610
MISLBF


WESTERN AND NORTH CENTRAL NEBRASKA HOURLY WEATHER ROUNDUP
NATIONAL WEATHER SERVICE NORTH PLATTE NE
1000 AM CST SAT JAN 24 2015

***STATIONS NOT REPORTING VARIABLES SUCH AS SKY/WEATHER OR
PRESSURE ARE PROVIDED BY THE NEBRASKA DEPARTMENT OF
ROADS...RAWS...AND APRS NETWORKS...AND ARE NOT UNDER
NATIONAL WEATHER SERVICE QUALITY CONTROL***

...OBSERVATIONS IN AND NEAR THE EASTERN PANHANDLE OF NEBRASKA...

CITY           SKY/WX    TMP DP  RH WIND       PRES   REMARKS
PINE RIDGE     CLOUDY    39  25  57 W13       29.91F WCI  31
CHADRON        CLOUDY    37  27  67 W12       29.93F WCI  29
ALLIANCE       CLOUDY    35  27  72 W8        29.95F WCI  29
SIDNEY         CLOUDY    37  19  48 W16       30.00F WCI  28
$$

...OBSERVATIONS IN NORTH CENTRAL NEBRASKA...

CITY           SKY/WX    TMP DP  RH WIND       PRES   REMARKS
VALENTINE      CLOUDY    38  28  67 W8        29.85F WCI  32
THEDFORD       CLOUDY    40  28  61 W12       29.91S WCI  34
AINSWORTH      CLOUDY    38  28  66 W10       29.85F WCI  31
O`NEILL        CLOUDY    40  31  69 W10       29.83F WCI  34
ORD            PTSUNNY   39  27  62 W10       29.89F WCI  32
BROKEN BOW     CLOUDY    36  28  73 W12       29.91F WCI  28
$$

...OBSERVATIONS IN SOUTHWEST NEBRASKA AND FAR NORTHEAST COLORADO...

CITY           SKY/WX    TMP DP  RH WIND       PRES   REMARKS
WRAY           FAIR      34  28  79 W12       30.04S WCI  25
HOLYOKE        FAIR      34  27  75 W12       30.01F WCI  25
IMPERIAL       CLOUDY    35  24  64 W9        30.00F WCI  28
OGALLALA       PTSUNNY   31  27  84 W10       30.00S WCI  22
NORTH PLATTE   CLOUDY    35  26  69 W13       29.96F WCI  26
MCCOOK         MOSUNNY   37  26  64 W10       30.00F WCI  30
LEXINGTON      PTSUNNY   34  29  83 W8        29.96F WCI  27
$$

...NORTH PLATTE AREA...

CITY           SKY/WX    TMP DP  RH WIND       PRES   REMARKS
AIRPORT        CLOUDY    35  26  69 W13       29.96F WCI  26
$$

...SOME WEATHER OBSERVATIONS FROM AROUND THE REGION...

CITY           SKY/WX    TMP DP  RH WIND       PRES   REMARKS
DENVER         CLOUDY    37  17  44 SW14      30.05F WCI  28
LARAMIE        CLOUDY    33  13  43 SW16      30.14R WCI  23
CHEYENNE       CLOUDY    41  10  28 W12G25    30.03F
SCOTTSBLUFF    CLOUDY    41  25  53 W15       29.98F
RAPID CITY     CLOUDY    41  28  60 CALM      29.83S
PIERRE         CLOUDY    38  28  67 SW9       29.75F WCI  31
WINNER         FAIR      46  27  47 W16       29.80F
SIOUX FALLS    CLOUDY    36  29  75 W7        29.75F WCI  30
OMAHA          PTSUNNY   40  30  67 CALM      29.86F
GRAND ISLAND   SUNNY     41  29  62 W14       29.92F
KANSAS CITY    MOSUNNY   38  30  73 SW9       29.94F WCI  31
WICHITA        MOSUNNY   46  29  51 NW7       30.06F
HAYS           SUNNY     41  23  48 W12       30.05S
LIBERAL        SUNNY     43  28  56 W10       30.14F
GOODLAND       SUNNY     41  27  57 W10       30.04F
$$



USA.gov is the U.S. government's official web portal to all federal, state and local government web resources and services.